Location: El Carrer d�Abaix
(41.5797°N, 2.1791°E)
Time: 04:22:13
(UTC+00:00)

Cosmos 2228 - Pass Details

Date: 06 June 2020
Orbit: 588 x 619 km, 82.5° (Epoch: 04 July)

Event Time Altitude Azimuth Distance (km) Brightness Sun altitude
Rises 23:25:04 0° 344° (NNW) 2,829 7.8 -25.4°
Reaches altitude 10° 23:27:22 10° 336° (NNW) 1,923 6.5 -25.4°
Enters shadow 23:30:53 38° 283° (WNW) 914 4.0 -25.5°
